Location: Churchill Northern Studies Centre
(58.7378°N, 93.8201°W)
Time: 12:22:21
(UTC-05:00)

Vanguard 1 - Visible Passes

Search period start: 23 October 2017 00:00
Search period end: 02 November 2017 00:00
Orbit: 650 x 3834 km, 34.3° (Epoch: 21 October)

Date Brightness Start Highest point End Pass type
(mag) Time Alt. Az. Time Alt. Az. Time Alt. Az.
23 Oct 13.5 01:29:55 20° SE 01:29:55 20° SE 01:37:27 10° ESE visible
23 Oct 13.1 03:42:38 31° S 03:43:53 31° S 04:01:44 10° SE visible
23 Oct 13.3 05:55:21 17° WSW 06:05:30 25° SSW 06:21:48 10° SSE visible
24 Oct 13.4 01:49:50 22° SE 01:49:50 22° SE 01:58:30 10° ESE visible
24 Oct 13.1 04:02:33 30° SSW 04:04:25 30° S 04:21:58 10° SE visible
24 Oct 13.4 06:15:16 14° WSW 06:25:51 22° SSW 06:40:39 10° S visible
25 Oct 13.4 02:09:47 24° SE 02:09:47 24° SE 02:19:20 10° ESE visible
25 Oct 13.1 04:22:30 28° SSW 04:24:56 28° SSW 04:41:57 10° SE visible
25 Oct 13.5 06:35:14 10° WSW 06:46:08 18° SW 06:58:46 10° S visible
26 Oct 13.3 02:29:46 25° SSE 02:29:46 25° SSE 02:39:58 10° SE visible
26 Oct 13.2 04:42:30 25° SSW 04:45:27 26° SSW 05:01:36 10° SSE visible
26 Oct 13.6 06:57:49 10° WSW 07:06:21 14° SW 07:15:38 10° SSW visible
27 Oct 13.3 02:49:48 25° SSE 02:49:48 25° SSE 03:00:25 10° SE visible
27 Oct 13.2 05:02:32 22° SW 05:05:55 23° SSW 05:20:49 10° SSE visible
28 Oct 13.3 03:09:52 24° SSE 03:09:52 24° SSE 03:20:36 10° SE visible
28 Oct 13.3 05:22:36 18° SW 05:26:22 19° SSW 05:39:28 10° S visible
29 Oct 13.8 01:17:14 11° ESE 01:17:14 11° ESE 01:17:46 10° ESE visible
29 Oct 13.3 03:29:58 23° S 03:29:58 23° S 03:40:31 10° SE visible
29 Oct 13.5 05:42:43 15° SW 05:46:44 16° SW 05:57:13 10° S visible
30 Oct 13.8 01:37:22 12° SE 01:37:22 12° SE 01:38:24 10° SE visible
30 Oct 13.4 03:50:06 21° S 03:50:06 21° S 04:00:04 10° SSE visible
30 Oct 13.6 06:02:51 11° SW 06:07:03 12° SW 06:13:06 10° SSW visible
31 Oct 13.8 01:57:32 12° SE 01:57:32 12° SE 01:58:48 10° SE visible
31 Oct 13.4 04:10:16 19° S 04:10:16 19° S 04:19:06 10° SSE visible
01 Nov 13.8 02:17:41 12° SE 02:17:41 12° SE 02:18:56 10° SE visible
01 Nov 13.5 04:30:26 15° SSW 04:30:26 15° SSW 04:37:26 10° S visible
